This demonstration page uses our WeatherBlox Daily Observations layout. Learn more.

Left ArrowRight Arrow

Hourly Observations for March 1, 2015

Temp ( °F °C ) Dew Point ( °F °C ) Humidity (%) Winds ( mph kmh ) Pressure ( in mb ) Visibility ( mi km ) Precip ( " mm )
12:51 am 00:51 Cloudy 55 12.8 44 6.7 67 67 ESE 5 7 29.87 1011 10 16 0.00 0.00
1:51 am 01:51 Mostly Clear 54 12.2 44 6.7 69 69 SE 8 13 29.88 1012 10 16 0.00 0.00
2:51 am 02:51 Mostly Clear 52 11.1 43 6.1 72 72 Calm 29.88 1012 10 16 0.00 0.00
3:51 am 03:51 Clear 49 9.4 43 6.1 80 80 VRB 3 6 29.88 1012 10 16 0.00 0.00
4:51 am 04:51 Mostly Clear 52 11.1 43 6.1 72 72 N 3 6 29.89 1012 10 16 0.00 0.00
5:51 am 05:51 Mostly Clear 51 10.6 42 5.6 71 71 Calm 29.91 1013 10 16 0.00 0.00
6:51 am 06:51 Sunny 47 8.3 42 5.6 83 83 ESE 6 9 29.94 1014 10 16 0.00 0.00
7:51 am 07:51 Sunny 55 12.8 42 5.6 62 62 ESE 8 13 29.95 1014 10 16 0.00 0.00
8:51 am 08:51 Sunny 60 15.6 40 4.4 47 47 ESE 8 13 29.96 1015 10 16 0.00 0.00
9:51 am 09:51 Sunny 64 17.8 38 3.3 38 38 SSE 9 15 29.95 1014 10 16 0.00 0.00
10:51 am 10:51 Sunny 67 19.4 30 -1.1 25 25 SSE 13 20 29.94 1014 10 16 0.00 0.00
11:51 am 11:51 Sunny 70 21.1 28 -2.2 21 21 ESE 14 22 29.91 1013 10 16 0.00 0.00
12:51 pm 12:51 Sunny 73 22.8 25 -3.9 17 17 S 21 33 29.87 1012 10 16 0.00 0.00
1:51 pm 13:51 Sunny 75 23.9 26 -3.3 16 16 S 17 28 29.84 1010 10 16 0.00 0.00
2:51 pm 14:51 Mostly Sunny 76 24.4 25 -3.9 15 15 S 15 24 29.82 1010 10 16 0.00 0.00
3:51 pm 15:51 Sunny 73 22.8 27 -2.8 18 18 S 15 24 29.82 1010 10 16 0.00 0.00
4:51 pm 16:51 Mostly Sunny 74 23.3 27 -2.8 17 17 S 12 19 29.81 1010 10 16 0.00 0.00
5:51 pm 17:51 Sunny 72 22.2 28 -2.2 19 19 S 13 20 29.82 1010 10 16 0.00 0.00
6:51 pm 18:51 Clear 69 20.6 29 -1.7 22 22 SW 12 19 29.85 1011 10 16 0.00 0.00
7:51 pm 19:51 Clear 66 18.9 30 -1.1 26 26 VRB 3 6 29.86 1011 10 16 0.00 0.00
8:51 pm 20:51 Clear 63 17.2 36 2.2 37 37 W 3 6 29.89 1012 10 16 0.00 0.00
9:51 pm 21:51 Clear 62 16.7 39 3.9 43 43 NW 8 13 29.89 1012 10 16 0.00 0.00
10:51 pm 22:51 Clear 58 14.4 35 1.7 42 42 ESE 7 11 29.91 1013 10 16 0.00 0.00
11:51 pm 23:51 Clear 57 13.9 35 1.7 44 44 ESE 3 6 29.90 1013 10 16 0.00 0.00

Powered by AerisWeather